Time,TemperatureF,DewpointF,PressureIn,WindDirection,WindDirectionDegrees,WindSpeedMPH,WindSpeedGustMPH,Humidity,HourlyPrecipIn,Conditions,Clouds,dailyrainin,SoftwareType,DateUTC
2013-02-21 00:01:00,33.4,26.0,29.55,WNW,300,7.0,11.0,74,0.00,,,0.00,LWC V2.11 B50,2013-02-21 07:01:00,
2013-02-21 00:07:00,33.3,25.9,29.55,WNW,282,7.0,9.0,74,0.00,,,0.00,LWC V2.11 B50,2013-02-21 07:07:00,
2013-02-21 00:12:00,33.3,25.9,29.55,NW,311,4.0,7.0,74,0.00,,,0.00,LWC V2.11 B50,2013-02-21 07:12:00,
2013-02-21 00:17:00,33.4,26.0,29.55,West,279,6.0,10.0,74,0.00,,,0.00,LWC V2.11 B50,2013-02-21 07:17:00,
2013-02-21 00:22:00,33.4,26.0,29.55,WNW,290,7.0,9.0,74,0.00,,,0.00,LWC V2.11 B50,2013-02-21 07:22:00,
2013-02-21 00:27:00,33.4,26.0,29.55,WNW,286,2.0,10.0,74,0.00,,,0.00,LWC V2.11 B50,2013-02-21 07:27:00,
2013-02-21 00:32:00,33.4,26.0,29.54,WNW,293,3.0,9.0,74,0.00,,,0.00,LWC V2.11 B50,2013-02-21 07:32:00,
2013-02-21 00:37:00,33.5,26.1,29.55,West,266,5.0,5.0,74,0.00,,,0.00,LWC V2.11 B50,2013-02-21 07:37:00,
2013-02-21 00:42:00,33.6,26.2,29.55,West,276,3.0,5.0,74,0.00,,,0.00,LWC V2.11 B50,2013-02-21 07:42:00,
2013-02-21 00:47:00,33.8,26.4,29.55,WNW,294,3.0,7.0,74,0.00,,,0.00,LWC V2.11 B50,2013-02-21 07:47:00,
2013-02-21 00:52:00,34.0,26.3,29.55,West,273,4.0,5.0,73,0.00,,,0.00,LWC V2.11 B50,2013-02-21 07:52:00,
2013-02-21 00:57:00,34.1,26.4,29.56,West,276,3.0,6.0,73,0.00,,,0.00,LWC V2.11 B50,2013-02-21 07:57:00,
2013-02-21 01:02:00,34.1,26.0,29.56,NW,312,6.0,9.0,72,0.00,,,0.00,LWC V2.11 B50,2013-02-21 08:02:00,
2013-02-21 01:07:00,34.0,25.9,29.57,West,277,2.0,6.0,72,0.00,,,0.00,LWC V2.11 B50,2013-02-21 08:07:00,
2013-02-21 01:12:00,34.0,25.9,29.58,SW,221,1.0,1.0,72,0.00,,,0.00,LWC V2.11 B50,2013-02-21 08:12:00,
2013-02-21 01:17:00,34.1,26.0,29.58,SSE,162,0.0,0.0,72,0.00,,,0.00,LWC V2.11 B50,2013-02-21 08:17:00,
2013-02-21 01:22:00,34.1,26.4,29.58,SSE,153,1.0,3.0,73,0.00,,,0.00,LWC V2.11 B50,2013-02-21 08:22:00,
2013-02-21 01:27:00,34.3,26.2,29.58,SSE,163,0.0,1.0,72,0.00,,,0.00,LWC V2.11 B50,2013-02-21 08:27:00,
2013-02-21 01:32:00,34.3,26.2,29.58,SSW,194,3.0,4.0,72,0.00,,,0.00,LWC V2.11 B50,2013-02-21 08:32:00,
2013-02-21 01:37:00,34.2,26.5,29.58,SW,215,0.0,1.0,73,0.00,,,0.00,LWC V2.11 B50,2013-02-21 08:37:00,
2013-02-21 01:42:00,34.1,26.7,29.58,SSW,207,0.0,1.0,74,0.00,,,0.00,LWC V2.11 B50,2013-02-21 08:42:00,
2013-02-21 01:47:00,34.1,26.7,29.59,West,275,0.0,0.0,74,0.00,,,0.00,LWC V2.11 B50,2013-02-21 08:47:00,
2013-02-21 01:52:00,34.0,26.9,29.59,West,275,0.0,0.0,75,0.00,,,0.00,LWC V2.11 B50,2013-02-21 08:52:00,
2013-02-21 01:57:00,34.1,27.0,29.59,West,277,0.0,2.0,75,0.00,,,0.00,LWC V2.11 B50,2013-02-21 08:57:00,
2013-02-21 02:02:00,34.0,26.6,29.59,West,277,0.0,0.0,74,0.00,,,0.00,LWC V2.11 B50,2013-02-21 09:02:00,
2013-02-21 02:07:00,34.1,27.0,29.59,West,277,0.0,0.0,75,0.00,,,0.00,LWC V2.11 B50,2013-02-21 09:07:00,
2013-02-21 02:12:00,34.1,27.0,29.59,West,277,0.0,0.0,75,0.00,,,0.00,LWC V2.11 B50,2013-02-21 09:12:00,
2013-02-21 02:17:00,34.1,27.7,29.59,SE,136,1.0,2.0,77,0.00,,,0.00,LWC V2.11 B50,2013-02-21 09:17:00,
2013-02-21 02:22:00,34.1,27.3,29.60,East,93,1.0,5.0,76,0.00,,,0.00,LWC V2.11 B50,2013-02-21 09:22:00,
2013-02-21 02:27:00,34.3,27.2,29.60,North,5,0.0,3.0,75,0.00,,,0.00,LWC V2.11 B50,2013-02-21 09:27:00,
2013-02-21 02:32:00,34.6,26.9,29.60,East,93,1.0,6.0,73,0.00,,,0.00,LWC V2.11 B50,2013-02-21 09:32:00,
2013-02-21 02:37:00,34.8,26.7,29.60,NNW,336,3.0,4.0,72,0.00,,,0.00,LWC V2.11 B50,2013-02-21 09:37:00,
2013-02-21 02:42:00,35.0,26.9,29.60,WNW,288,2.0,2.0,72,0.00,,,0.00,LWC V2.11 B50,2013-02-21 09:42:00,
2013-02-21 02:47:00,34.9,26.8,29.60,WSW,238,0.0,3.0,72,0.00,,,0.00,LWC V2.11 B50,2013-02-21 09:47:00,
2013-02-21 02:52:00,34.8,27.0,29.61,NW,309,0.0,5.0,73,0.00,,,0.00,LWC V2.11 B50,2013-02-21 09:52:00,
2013-02-21 02:57:00,34.7,27.3,29.61,NNE,13,1.0,2.0,74,0.00,,,0.00,LWC V2.11 B50,2013-02-21 09:57:00,
2013-02-21 03:02:00,34.6,27.2,29.61,North,0,0.0,4.0,74,0.00,,,0.00,LWC V2.11 B50,2013-02-21 10:02:00,
2013-02-21 03:07:00,34.5,27.1,29.61,NNE,20,0.0,4.0,74,0.00,,,0.00,LWC V2.11 B50,2013-02-21 10:07:00,
2013-02-21 03:12:00,34.5,27.7,29.61,North,5,1.0,4.0,76,0.00,,,0.00,LWC V2.11 B50,2013-02-21 10:12:00,
2013-02-21 03:17:00,34.2,28.7,29.62,ENE,76,1.0,2.0,80,0.00,,,0.00,LWC V2.11 B50,2013-02-21 10:17:00,
2013-02-21 03:22:00,33.8,28.6,29.62,East,82,0.0,1.0,81,0.00,,,0.00,LWC V2.11 B50,2013-02-21 10:22:00,
2013-02-21 03:27:00,33.4,28.5,29.63,ESE,123,0.0,2.0,82,0.00,,,0.00,LWC V2.11 B50,2013-02-21 10:27:00,
2013-02-21 03:32:00,33.0,28.4,29.63,East,92,2.0,2.0,83,0.00,,,0.00,LWC V2.11 B50,2013-02-21 10:32:00,
2013-02-21 03:37:00,32.7,28.4,29.63,ESE,105,0.0,0.0,84,0.00,,,0.00,LWC V2.11 B50,2013-02-21 10:37:00,
2013-02-21 03:42:00,32.4,28.1,29.64,ESE,119,2.0,2.0,84,0.00,,,0.00,LWC V2.11 B50,2013-02-21 10:42:00,
2013-02-21 03:47:00,31.9,27.6,29.64,SE,128,0.0,1.0,84,0.00,,,0.00,LWC V2.11 B50,2013-02-21 10:47:00,
2013-02-21 03:52:00,31.6,27.6,29.65,ESE,121,0.0,1.0,85,0.00,,,0.00,LWC V2.11 B50,2013-02-21 10:52:00,
2013-02-21 03:57:00,31.5,27.5,29.65,ESE,121,0.0,0.0,85,0.00,,,0.00,LWC V2.11 B50,2013-02-21 10:57:00,
2013-02-21 04:02:00,31.3,27.3,29.66,ESE,121,0.0,0.0,85,0.00,,,0.00,LWC V2.11 B50,2013-02-21 11:02:00,
2013-02-21 04:07:00,31.2,27.5,29.66,SSE,155,0.0,0.0,86,0.00,,,0.00,LWC V2.11 B50,2013-02-21 11:07:00,
2013-02-21 04:13:00,31.0,27.3,29.66,SSE,155,0.0,0.0,86,0.00,,,0.00,LWC V2.11 B50,2013-02-21 11:13:00,
2013-02-21 04:18:00,30.9,27.2,29.67,SSE,154,0.0,1.0,86,0.00,,,0.00,LWC V2.11 B50,2013-02-21 11:18:00,
2013-02-21 04:23:00,30.9,27.2,29.67,SSE,155,0.0,0.0,86,0.00,,,0.00,LWC V2.11 B50,2013-02-21 11:23:00,
2013-02-21 04:28:00,30.9,27.5,29.68,SSE,155,0.0,0.0,87,0.00,,,0.00,LWC V2.11 B50,2013-02-21 11:28:00,
2013-02-21 04:33:00,31.0,27.6,29.68,SSE,155,0.0,0.0,87,0.00,,,0.00,LWC V2.11 B50,2013-02-21 11:33:00,
2013-02-21 04:38:00,31.0,27.3,29.68,SSE,155,0.0,0.0,86,0.00,,,0.00,LWC V2.11 B50,2013-02-21 11:38:00,
2013-02-21 04:43:00,31.1,27.4,29.68,SSE,158,0.0,0.0,86,0.00,,,0.00,LWC V2.11 B50,2013-02-21 11:43:00,
2013-02-21 04:48:00,31.2,27.5,29.68,SSE,159,0.0,0.0,86,0.00,,,0.00,LWC V2.11 B50,2013-02-21 11:48:00,
2013-02-21 04:53:00,31.2,27.5,29.69,SSE,159,0.0,0.0,86,0.00,,,0.00,LWC V2.11 B50,2013-02-21 11:53:00,
2013-02-21 04:58:00,31.3,27.6,29.69,SSE,159,0.0,0.0,86,0.00,,,0.00,LWC V2.11 B50,2013-02-21 11:58:00,
2013-02-21 05:03:00,31.4,27.4,29.70,SSE,157,0.0,0.0,85,0.00,,,0.00,LWC V2.11 B50,2013-02-21 12:03:00,
2013-02-21 05:08:00,31.4,27.7,29.70,SSE,157,0.0,0.0,86,0.00,,,0.00,LWC V2.11 B50,2013-02-21 12:08:00,
2013-02-21 05:13:00,31.4,27.7,29.70,SSE,157,0.0,0.0,86,0.00,,,0.00,LWC V2.11 B50,2013-02-21 12:13:00,
2013-02-21 05:18:00,31.4,27.7,29.70,SSE,166,0.0,0.0,86,0.00,,,0.00,LWC V2.11 B50,2013-02-21 12:18:00,
2013-02-21 05:23:00,31.4,27.7,29.70,South,173,0.0,0.0,86,0.00,,,0.00,LWC V2.11 B50,2013-02-21 12:23:00,
2013-02-21 05:28:00,31.5,27.8,29.71,SSW,193,0.0,0.0,86,0.00,,,0.00,LWC V2.11 B50,2013-02-21 12:28:00,
2013-02-21 05:33:00,31.5,27.8,29.71,SSW,193,0.0,0.0,86,0.00,,,0.00,LWC V2.11 B50,2013-02-21 12:33:00,
2013-02-21 05:38:00,31.6,27.9,29.72,SSW,193,0.0,1.0,86,0.00,,,0.00,LWC V2.11 B50,2013-02-21 12:38:00,
2013-02-21 05:43:00,31.7,28.0,29.72,South,189,0.0,0.0,86,0.00,,,0.00,LWC V2.11 B50,2013-02-21 12:43:00,
2013-02-21 05:48:00,31.7,28.0,29.72,South,189,0.0,0.0,86,0.00,,,0.00,LWC V2.11 B50,2013-02-21 12:48:00,
2013-02-21 05:53:00,31.7,28.0,29.72,South,186,0.0,0.0,86,0.00,,,0.00,LWC V2.11 B50,2013-02-21 12:53:00,
2013-02-21 05:58:00,31.7,28.0,29.73,SSE,161,0.0,0.0,86,0.00,,,0.00,LWC V2.11 B50,2013-02-21 12:58:00,
2013-02-21 06:03:00,31.7,27.7,29.73,SSE,161,0.0,1.0,85,0.00,,,0.00,LWC V2.11 B50,2013-02-21 13:03:00,
2013-02-21 06:08:00,31.6,27.6,29.73,SSE,161,0.0,0.0,85,0.00,,,0.00,LWC V2.11 B50,2013-02-21 13:08:00,
2013-02-21 06:13:00,31.7,27.7,29.73,SSE,161,0.0,0.0,85,0.00,,,0.00,LWC V2.11 B50,2013-02-21 13:13:00,
2013-02-21 06:18:00,31.6,27.0,29.74,SSE,155,0.0,1.0,83,0.00,,,0.00,LWC V2.11 B50,2013-02-21 13:18:00,
2013-02-21 06:23:00,31.6,27.0,29.74,SSE,155,0.0,0.0,83,0.00,,,0.00,LWC V2.11 B50,2013-02-21 13:23:00,
2013-02-21 06:28:00,31.5,26.9,29.74,SSE,155,0.0,0.0,83,0.00,,,0.00,LWC V2.11 B50,2013-02-21 13:28:00,
2013-02-21 06:33:00,31.5,26.9,29.74,SSE,155,0.0,0.0,83,0.00,,,0.00,LWC V2.11 B50,2013-02-21 13:33:00,
2013-02-21 06:38:00,31.5,26.7,29.74,SSE,155,0.0,0.0,82,0.00,,,0.00,LWC V2.11 B50,2013-02-21 13:38:00,
2013-02-21 06:43:00,31.5,26.7,29.75,SSE,155,0.0,0.0,82,0.00,,,0.00,LWC V2.11 B50,2013-02-21 13:43:00,
2013-02-21 06:48:00,31.6,26.7,29.75,SSE,155,0.0,0.0,82,0.00,,,0.00,LWC V2.11 B50,2013-02-21 13:48:00,
2013-02-21 06:53:00,31.6,26.5,29.75,SSE,154,0.0,0.0,81,0.00,,,0.00,LWC V2.11 B50,2013-02-21 13:53:00,
2013-02-21 06:58:00,31.7,26.5,29.75,SSE,154,0.0,0.0,81,0.00,,,0.00,LWC V2.11 B50,2013-02-21 13:58:00,
2013-02-21 07:03:00,31.7,26.5,29.75,SSE,154,0.0,0.0,81,0.00,,,0.00,LWC V2.11 B50,2013-02-21 14:03:00,
2013-02-21 07:08:00,31.7,26.5,29.76,SSE,154,0.0,0.0,81,0.00,,,0.00,LWC V2.11 B50,2013-02-21 14:08:00,
2013-02-21 07:13:00,31.7,26.5,29.76,SSE,154,0.0,0.0,81,0.00,,,0.00,LWC V2.11 B50,2013-02-21 14:13:00,
2013-02-21 07:18:00,31.8,26.6,29.77,SE,138,0.0,0.0,81,0.00,,,0.00,LWC V2.11 B50,2013-02-21 14:18:00,
2013-02-21 07:23:00,31.8,26.3,29.78,SE,146,0.0,0.0,80,0.00,,,0.00,LWC V2.11 B50,2013-02-21 14:23:00,
2013-02-21 07:28:00,32.0,25.9,29.78,SE,146,0.0,0.0,78,0.00,,,0.00,LWC V2.11 B50,2013-02-21 14:28:00,
2013-02-21 07:33:00,32.1,26.0,29.78,SE,146,0.0,0.0,78,0.00,,,0.00,LWC V2.11 B50,2013-02-21 14:33:00,
2013-02-21 07:38:00,32.3,25.6,29.79,SSW,198,0.0,0.0,76,0.00,,,0.00,LWC V2.11 B50,2013-02-21 14:38:00,
2013-02-21 07:43:00,32.5,24.8,29.79,SSW,196,0.0,0.0,73,0.00,,,0.00,LWC V2.11 B50,2013-02-21 14:43:00,
2013-02-21 07:48:00,32.7,24.0,29.80,WNW,286,0.0,3.0,70,0.00,,,0.00,LWC V2.11 B50,2013-02-21 14:48:00,
2013-02-21 07:53:00,32.7,23.7,29.80,WNW,286,0.0,0.0,69,0.00,,,0.00,LWC V2.11 B50,2013-02-21 14:53:00,
2013-02-21 07:58:00,32.8,23.4,29.80,South,175,0.0,1.0,68,0.00,,,0.00,LWC V2.11 B50,2013-02-21 14:58:00,
2013-02-21 08:03:00,32.9,23.2,29.80,SSW,200,0.0,2.0,67,0.00,,,0.00,LWC V2.11 B50,2013-02-21 15:03:00,
2013-02-21 08:08:00,33.2,23.1,29.81,WNW,296,2.0,6.0,66,0.00,,,0.00,LWC V2.11 B50,2013-02-21 15:08:00,
2013-02-21 08:13:00,33.6,23.1,29.81,West,272,2.0,4.0,65,0.00,,,0.00,LWC V2.11 B50,2013-02-21 15:13:00,
2013-02-21 08:18:00,33.9,23.0,29.81,West,267,3.0,4.0,64,0.00,,,0.00,LWC V2.11 B50,2013-02-21 15:18:00,
2013-02-21 08:23:00,34.2,23.3,29.81,West,275,2.0,6.0,64,0.00,,,0.00,LWC V2.11 B50,2013-02-21 15:23:00,
2013-02-21 08:28:00,34.3,23.4,29.81,West,277,2.0,5.0,64,0.00,,,0.00,LWC V2.11 B50,2013-02-21 15:28:00,
2013-02-21 08:33:00,34.4,23.5,29.82,West,271,5.0,6.0,64,0.00,,,0.00,LWC V2.11 B50,2013-02-21 15:33:00,
2013-02-21 08:38:00,34.6,23.3,29.82,West,275,2.0,5.0,63,0.00,,,0.00,LWC V2.11 B50,2013-02-21 15:38:00,
2013-02-21 08:43:00,34.7,23.4,29.82,West,259,3.0,8.0,63,0.00,,,0.00,LWC V2.11 B50,2013-02-21 15:43:00,
2013-02-21 08:48:00,34.9,23.6,29.82,West,279,6.0,8.0,63,0.00,,,0.00,LWC V2.11 B50,2013-02-21 15:48:00,
2013-02-21 08:53:00,35.2,23.9,29.82,West,276,0.0,2.0,63,0.00,,,0.00,LWC V2.11 B50,2013-02-21 15:53:00,
2013-02-21 08:58:00,35.6,23.9,29.82,WNW,289,0.0,5.0,62,0.00,,,0.00,LWC V2.11 B50,2013-02-21 15:58:00,
2013-02-21 09:04:00,36.1,24.4,29.82,West,260,1.0,6.0,62,0.00,,,0.00,LWC V2.11 B50,2013-02-21 16:04:00,
2013-02-21 09:09:00,36.6,24.0,29.82,WNW,288,6.0,7.0,60,0.00,,,0.00,LWC V2.11 B50,2013-02-21 16:09:00,
2013-02-21 09:14:00,37.3,24.3,29.83,West,271,5.0,11.0,59,0.00,,,0.00,LWC V2.11 B50,2013-02-21 16:14:00,
2013-02-21 09:19:00,37.5,24.1,29.83,WNW,282,7.0,10.0,58,0.00,,,0.00,LWC V2.11 B50,2013-02-21 16:19:00,
2013-02-21 09:24:00,37.9,24.0,29.83,West,279,6.0,8.0,57,0.00,,,0.00,LWC V2.11 B50,2013-02-21 16:24:00,
2013-02-21 09:29:00,38.4,24.5,29.83,West,263,6.0,8.0,57,0.00,,,0.00,LWC V2.11 B50,2013-02-21 16:29:00,
2013-02-21 09:34:00,38.3,24.0,29.83,WNW,284,3.0,8.0,56,0.00,,,0.00,LWC V2.11 B50,2013-02-21 16:34:00,
2013-02-21 09:39:00,38.4,24.1,29.83,SW,228,1.0,7.0,56,0.00,,,0.00,LWC V2.11 B50,2013-02-21 16:39:00,
2013-02-21 09:44:00,38.8,24.0,29.83,SW,234,5.0,5.0,55,0.00,,,0.00,LWC V2.11 B50,2013-02-21 16:44:00,
2013-02-21 09:53:00,39.1,24.3,29.84,SW,235,0.0,11.0,55,0.00,,,0.00,LWC V2.11 B50,2013-02-21 16:53:00,
2013-02-21 09:58:00,39.4,24.2,29.84,NW,304,3.0,4.0,54,0.00,,,0.00,LWC V2.11 B50,2013-02-21 16:58:00,
2013-02-21 10:03:00,39.6,24.8,29.83,SW,217,3.0,6.0,55,0.00,,,0.00,LWC V2.11 B50,2013-02-21 17:03:00,
2013-02-21 10:08:00,40.7,24.5,29.84,WNW,299,4.0,4.0,52,0.00,,,0.00,LWC V2.11 B50,2013-02-21 17:08:00,
2013-02-21 10:13:00,41.9,25.6,29.84,West,276,2.0,10.0,52,0.00,,,0.00,LWC V2.11 B50,2013-02-21 17:13:00,
2013-02-21 10:18:00,42.9,25.1,29.84,West,277,3.0,5.0,49,0.00,,,0.00,LWC V2.11 B50,2013-02-21 17:18:00,
2013-02-21 10:23:00,43.3,24.4,29.84,West,273,1.0,7.0,47,0.00,,,0.00,LWC V2.11 B50,2013-02-21 17:23:00,
2013-02-21 10:28:00,43.7,25.3,29.84,WSW,253,1.0,3.0,48,0.00,,,0.00,LWC V2.11 B50,2013-02-21 17:28:00,
2013-02-21 10:33:00,44.0,25.1,29.84,West,274,0.0,5.0,47,0.00,,,0.00,LWC V2.11 B50,2013-02-21 17:33:00,
2013-02-21 10:38:00,44.6,25.1,29.85,WNW,282,0.0,3.0,46,0.00,,,0.00,LWC V2.11 B50,2013-02-21 17:38:00,
2013-02-21 10:43:00,45.1,24.5,29.84,SW,215,3.0,7.0,44,0.00,,,0.00,LWC V2.11 B50,2013-02-21 17:43:00,
2013-02-21 10:48:00,45.4,23.7,29.84,WNW,284,3.0,6.0,42,0.00,,,0.00,LWC V2.11 B50,2013-02-21 17:48:00,
2013-02-21 10:53:00,45.2,23.5,29.84,SW,235,5.0,7.0,42,0.00,,,0.00,LWC V2.11 B50,2013-02-21 17:53:00,
2013-02-21 10:58:00,44.9,23.8,29.84,SW,219,5.0,6.0,43,0.00,,,0.00,LWC V2.11 B50,2013-02-21 17:58:00,
2013-02-21 11:03:00,44.9,23.8,29.84,West,279,6.0,7.0,43,0.00,,,0.00,LWC V2.11 B50,2013-02-21 18:03:00,
2013-02-21 11:08:00,44.9,23.8,29.84,West,279,0.0,4.0,43,0.00,,,0.00,LWC V2.11 B50,2013-02-21 18:08:00,
2013-02-21 11:13:00,44.6,23.5,29.84,WSW,247,2.0,3.0,43,0.00,,,0.00,LWC V2.11 B50,2013-02-21 18:13:00,
2013-02-21 11:18:00,44.5,23.4,29.84,West,272,3.0,8.0,43,0.00,,,0.00,LWC V2.11 B50,2013-02-21 18:18:00,
2013-02-21 11:23:00,44.3,23.8,29.84,West,278,8.0,8.0,44,0.00,,,0.00,LWC V2.11 B50,2013-02-21 18:23:00,
2013-02-21 11:28:00,44.3,23.2,29.84,West,263,2.0,8.0,43,0.00,,,0.00,LWC V2.11 B50,2013-02-21 18:28:00,
2013-02-21 11:33:00,44.3,23.2,29.84,SSW,202,2.0,9.0,43,0.00,,,0.00,LWC V2.11 B50,2013-02-21 18:33:00,
2013-02-21 11:38:00,44.5,23.4,29.84,WSW,254,4.0,7.0,43,0.00,,,0.00,LWC V2.11 B50,2013-02-21 18:38:00,
2013-02-21 11:43:00,44.6,23.5,29.84,NW,311,5.0,9.0,43,0.00,,,0.00,LWC V2.11 B50,2013-02-21 18:43:00,
2013-02-21 11:48:00,45.1,23.4,29.84,WSW,246,0.0,10.0,42,0.00,,,0.00,LWC V2.11 B50,2013-02-21 18:48:00,
2013-02-21 11:53:00,45.1,24.0,29.84,WSW,250,0.0,8.0,43,0.00,,,0.00,LWC V2.11 B50,2013-02-21 18:53:00,
2013-02-21 11:58:00,45.2,24.0,29.83,SSW,208,3.0,5.0,43,0.00,,,0.00,LWC V2.11 B50,2013-02-21 18:58:00,
2013-02-21 12:03:00,45.2,23.5,29.83,NNW,333,4.0,6.0,42,0.00,,,0.00,LWC V2.11 B50,2013-02-21 19:03:00,
2013-02-21 12:08:00,45.2,22.9,29.83,West,270,2.0,3.0,41,0.00,,,0.00,LWC V2.11 B50,2013-02-21 19:08:00,
2013-02-21 12:13:00,45.1,20.4,29.83,West,272,9.0,10.0,37,0.00,,,0.00,LWC V2.11 B50,2013-02-21 19:13:00,
2013-02-21 12:18:00,45.2,19.8,29.83,WNW,287,5.0,5.0,36,0.00,,,0.00,LWC V2.11 B50,2013-02-21 19:18:00,
2013-02-21 12:23:00,45.3,19.9,29.83,NW,309,3.0,7.0,36,0.00,,,0.00,LWC V2.11 B50,2013-02-21 19:23:00,
2013-02-21 12:28:00,45.3,19.9,29.83,WNW,293,9.0,9.0,36,0.00,,,0.00,LWC V2.11 B50,2013-02-21 19:28:00,
2013-02-21 12:33:00,45.4,20.0,29.83,WNW,298,8.0,8.0,36,0.00,,,0.00,LWC V2.11 B50,2013-02-21 19:33:00,
2013-02-21 12:38:00,45.5,19.5,29.82,West,268,3.0,4.0,35,0.00,,,0.00,LWC V2.11 B50,2013-02-21 19:38:00,
2013-02-21 12:43:00,45.7,19.6,29.82,NNW,343,2.0,5.0,35,0.00,,,0.00,LWC V2.11 B50,2013-02-21 19:43:00,
2013-02-21 12:48:00,45.9,19.1,29.82,NW,320,0.0,4.0,34,0.00,,,0.00,LWC V2.11 B50,2013-02-21 19:48:00,
2013-02-21 12:53:00,46.1,20.6,29.82,NNW,335,7.0,8.0,36,0.00,,,0.00,LWC V2.11 B50,2013-02-21 19:53:00,
2013-02-21 12:58:00,46.3,22.1,29.82,WNW,287,5.0,10.0,38,0.00,,,0.00,LWC V2.11 B50,2013-02-21 19:58:00,
2013-02-21 13:03:00,46.5,19.0,29.81,West,269,8.0,9.0,33,0.00,,,0.00,LWC V2.11 B50,2013-02-21 20:03:00,
2013-02-21 13:08:00,46.6,19.1,29.81,NW,316,4.0,10.0,33,0.00,,,0.00,LWC V2.11 B50,2013-02-21 20:08:00,
2013-02-21 13:13:00,46.6,19.8,29.81,WNW,290,0.0,8.0,34,0.00,,,0.00,LWC V2.11 B50,2013-02-21 20:13:00,
2013-02-21 13:18:00,47.0,20.1,29.81,NW,323,7.0,7.0,34,0.00,,,0.00,LWC V2.11 B50,2013-02-21 20:18:00,
2013-02-21 13:23:00,47.7,20.7,29.81,WNW,290,5.0,13.0,34,0.00,,,0.00,LWC V2.11 B50,2013-02-21 20:23:00,
2013-02-21 13:28:00,47.1,20.2,29.81,NW,313,2.0,7.0,34,0.00,,,0.00,LWC V2.11 B50,2013-02-21 20:28:00,
2013-02-21 13:33:00,47.3,21.0,29.81,WNW,302,7.0,7.0,35,0.00,,,0.00,LWC V2.11 B50,2013-02-21 20:33:00,
2013-02-21 13:38:00,48.2,21.2,29.81,NW,310,8.0,9.0,34,0.00,,,0.00,LWC V2.11 B50,2013-02-21 20:38:00,
2013-02-21 13:43:00,48.4,20.6,29.81,West,274,1.0,9.0,33,0.00,,,0.00,LWC V2.11 B50,2013-02-21 20:43:00,
2013-02-21 13:48:00,49.0,21.2,29.81,NNW,333,4.0,14.0,33,0.00,,,0.00,LWC V2.11 B50,2013-02-21 20:48:00,
2013-02-21 13:53:00,49.2,21.3,29.81,West,272,8.0,12.0,33,0.00,,,0.00,LWC V2.11 B50,2013-02-21 20:53:00,
2013-02-21 13:58:00,49.4,20.8,29.81,NW,313,3.0,9.0,32,0.00,,,0.00,LWC V2.11 B50,2013-02-21 20:58:00,
2013-02-21 14:03:00,49.1,19.8,29.81,West,281,4.0,12.0,31,0.00,,,0.00,LWC V2.11 B50,2013-02-21 21:03:00,
2013-02-21 14:08:00,48.9,21.8,29.81,WNW,290,4.0,15.0,34,0.00,,,0.00,LWC V2.11 B50,2013-02-21 21:08:00,
2013-02-21 14:13:00,49.4,21.5,29.81,WSW,246,5.0,12.0,33,0.00,,,0.00,LWC V2.11 B50,2013-02-21 21:13:00,
2013-02-21 14:18:00,49.5,22.3,29.81,WNW,297,14.0,14.0,34,0.00,,,0.00,LWC V2.11 B50,2013-02-21 21:18:00,
2013-02-21 14:23:00,49.2,21.3,29.81,WNW,296,6.0,6.0,33,0.00,,,0.00,LWC V2.11 B50,2013-02-21 21:23:00,
2013-02-21 14:28:00,48.8,19.5,29.81,NW,324,6.0,6.0,31,0.00,,,0.00,LWC V2.11 B50,2013-02-21 21:28:00,
2013-02-21 14:33:00,48.2,20.5,29.82,NW,320,4.0,10.0,33,0.00,,,0.00,LWC V2.11 B50,2013-02-21 21:33:00,
2013-02-21 14:38:00,47.4,19.8,29.82,West,277,6.0,11.0,33,0.00,,,0.00,LWC V2.11 B50,2013-02-21 21:38:00,
2013-02-21 14:43:00,47.6,19.9,29.82,NNW,344,2.0,4.0,33,0.00,,,0.00,LWC V2.11 B50,2013-02-21 21:43:00,
2013-02-21 14:48:00,47.7,20.0,29.82,NW,316,2.0,9.0,33,0.00,,,0.00,LWC V2.11 B50,2013-02-21 21:48:00,
2013-02-21 14:53:00,47.9,20.2,29.82,West,275,3.0,12.0,33,0.00,,,0.00,LWC V2.11 B50,2013-02-21 21:53:00,
2013-02-21 14:58:00,48.1,20.4,29.81,WNW,288,4.0,11.0,33,0.00,,,0.00,LWC V2.11 B50,2013-02-21 21:58:00,
2013-02-21 15:03:00,47.9,20.2,29.81,West,281,4.0,9.0,33,0.00,,,0.00,LWC V2.11 B50,2013-02-21 22:03:00,
2013-02-21 15:08:00,47.4,19.8,29.81,West,273,2.0,5.0,33,0.00,,,0.00,LWC V2.11 B50,2013-02-21 22:08:00,
2013-02-21 15:13:00,47.2,20.3,29.81,West,267,7.0,7.0,34,0.00,,,0.00,LWC V2.11 B50,2013-02-21 22:13:00,
2013-02-21 15:18:00,47.0,20.1,29.81,WNW,300,8.0,14.0,34,0.00,,,0.00,LWC V2.11 B50,2013-02-21 22:18:00,
2013-02-21 15:23:00,47.1,19.5,29.81,NW,316,4.0,7.0,33,0.00,,,0.00,LWC V2.11 B50,2013-02-21 22:23:00,
2013-02-21 15:28:00,47.0,19.4,29.81,WNW,294,5.0,5.0,33,0.00,,,0.00,LWC V2.11 B50,2013-02-21 22:28:00,
2013-02-21 15:33:00,47.0,19.4,29.82,NW,308,1.0,3.0,33,0.00,,,0.00,LWC V2.11 B50,2013-02-21 22:33:00,
2013-02-21 15:38:00,46.9,19.3,29.82,West,281,0.0,2.0,33,0.00,,,0.00,LWC V2.11 B50,2013-02-21 22:38:00,
2013-02-21 15:43:00,46.9,19.3,29.82,SW,217,0.0,2.0,33,0.00,,,0.00,LWC V2.11 B50,2013-02-21 22:43:00,
2013-02-21 15:48:00,47.0,20.8,29.82,West,271,3.0,6.0,35,0.00,,,0.00,LWC V2.11 B50,2013-02-21 22:48:00,
2013-02-21 15:53:00,46.9,21.4,29.82,WNW,296,0.0,5.0,36,0.00,,,0.00,LWC V2.11 B50,2013-02-21 22:53:00,
2013-02-21 15:58:00,46.8,20.6,29.82,NW,321,0.0,9.0,35,0.00,,,0.00,LWC V2.11 B50,2013-02-21 22:58:00,
2013-02-21 16:03:00,46.9,20.0,29.82,WNW,292,0.0,7.0,34,0.00,,,0.00,LWC V2.11 B50,2013-02-21 23:03:00,
2013-02-21 16:08:00,46.9,20.7,29.82,West,266,3.0,5.0,35,0.00,,,0.00,LWC V2.11 B50,2013-02-21 23:08:00,
2013-02-21 16:13:00,46.8,20.6,29.82,WNW,296,2.0,9.0,35,0.00,,,0.00,LWC V2.11 B50,2013-02-21 23:13:00,
2013-02-21 16:18:00,46.8,20.6,29.83,West,271,2.0,8.0,35,0.00,,,0.00,LWC V2.11 B50,2013-02-21 23:18:00,
2013-02-21 16:23:00,46.8,21.3,29.82,SSW,197,2.0,4.0,36,0.00,,,0.00,LWC V2.11 B50,2013-02-21 23:23:00,
2013-02-21 16:28:00,46.6,21.1,29.82,West,262,6.0,11.0,36,0.00,,,0.00,LWC V2.11 B50,2013-02-21 23:28:00,
2013-02-21 16:33:00,46.4,21.6,29.82,West,265,3.0,9.0,37,0.00,,,0.00,LWC V2.11 B50,2013-02-21 23:33:00,
2013-02-21 16:38:00,46.4,21.6,29.82,NW,307,2.0,7.0,37,0.00,,,0.00,LWC V2.11 B50,2013-02-21 23:38:00,
2013-02-21 16:43:00,46.4,21.6,29.82,West,273,3.0,5.0,37,0.00,,,0.00,LWC V2.11 B50,2013-02-21 23:43:00,
2013-02-21 16:48:00,46.0,21.2,29.82,WNW,296,1.0,2.0,37,0.00,,,0.00,LWC V2.11 B50,2013-02-21 23:48:00,
2013-02-21 16:53:00,45.5,21.4,29.82,NW,321,8.0,9.0,38,0.00,,,0.00,LWC V2.11 B50,2013-02-21 23:53:00,
2013-02-21 16:58:00,44.9,20.8,29.82,WNW,293,4.0,7.0,38,0.00,,,0.00,LWC V2.11 B50,2013-02-21 23:58:00,
2013-02-21 17:03:00,44.6,20.6,29.82,West,268,4.0,7.0,38,0.00,,,0.00,LWC V2.11 B50,2013-02-22 00:03:00,
2013-02-21 17:08:00,44.3,21.5,29.82,WNW,286,8.0,9.0,40,0.00,,,0.00,LWC V2.11 B50,2013-02-22 00:08:00,
2013-02-21 17:13:00,43.9,21.2,29.83,West,281,0.0,6.0,40,0.00,,,0.00,LWC V2.11 B50,2013-02-22 00:13:00,
2013-02-21 17:18:00,43.6,21.5,29.83,WSW,240,1.0,8.0,41,0.00,,,0.00,LWC V2.11 B50,2013-02-22 00:18:00,
2013-02-21 17:23:00,43.4,21.3,29.83,WNW,296,2.0,7.0,41,0.00,,,0.00,LWC V2.11 B50,2013-02-22 00:23:00,
2013-02-21 17:28:00,43.2,21.1,29.83,WNW,294,1.0,7.0,41,0.00,,,0.00,LWC V2.11 B50,2013-02-22 00:28:00,
2013-02-21 17:33:00,43.0,20.9,29.83,WNW,293,4.0,12.0,41,0.00,,,0.00,LWC V2.11 B50,2013-02-22 00:33:00,
2013-02-21 17:38:00,42.9,21.4,29.83,West,262,6.0,6.0,42,0.00,,,0.00,LWC V2.11 B50,2013-02-22 00:38:00,
2013-02-21 17:43:00,42.7,21.2,29.83,West,271,5.0,8.0,42,0.00,,,0.00,LWC V2.11 B50,2013-02-22 00:43:00,
2013-02-21 17:48:00,42.5,21.0,29.83,WNW,292,4.0,6.0,42,0.00,,,0.00,LWC V2.11 B50,2013-02-22 00:48:00,
2013-02-21 17:53:00,42.4,21.0,29.84,WNW,283,4.0,6.0,42,0.00,,,0.00,LWC V2.11 B50,2013-02-22 00:53:00,
2013-02-21 17:58:00,42.3,20.9,29.84,West,263,5.0,6.0,42,0.00,,,0.00,LWC V2.11 B50,2013-02-22 00:58:00,
2013-02-21 18:03:00,42.2,20.8,29.85,West,277,0.0,5.0,42,0.00,,,0.00,LWC V2.11 B50,2013-02-22 01:03:00,
2013-02-21 18:08:00,42.1,20.7,29.85,West,266,2.0,7.0,42,0.00,,,0.00,LWC V2.11 B50,2013-02-22 01:08:00,
2013-02-21 18:13:00,41.9,21.1,29.86,West,272,3.0,5.0,43,0.00,,,0.00,LWC V2.11 B50,2013-02-22 01:13:00,
2013-02-21 18:18:00,41.8,21.0,29.86,West,263,1.0,4.0,43,0.00,,,0.00,LWC V2.11 B50,2013-02-22 01:18:00,
2013-02-21 18:23:00,41.6,20.8,29.87,West,277,1.0,10.0,43,0.00,,,0.00,LWC V2.11 B50,2013-02-22 01:23:00,
2013-02-21 18:28:00,41.4,20.6,29.87,West,268,5.0,5.0,43,0.00,,,0.00,LWC V2.11 B50,2013-02-22 01:28:00,
2013-02-21 18:33:00,41.1,20.3,29.88,WSW,245,0.0,9.0,43,0.00,,,0.00,LWC V2.11 B50,2013-02-22 01:33:00,
2013-02-21 18:38:00,40.9,20.1,29.88,West,273,3.0,6.0,43,0.00,,,0.00,LWC V2.11 B50,2013-02-22 01:38:00,
2013-02-21 18:43:00,40.8,20.1,29.89,NW,309,1.0,8.0,43,0.00,,,0.00,LWC V2.11 B50,2013-02-22 01:43:00,
2013-02-21 18:48:00,40.6,20.4,29.89,West,269,6.0,10.0,44,0.00,,,0.00,LWC V2.11 B50,2013-02-22 01:48:00,
2013-02-21 18:53:00,40.5,20.3,29.89,WNW,284,0.0,4.0,44,0.00,,,0.00,LWC V2.11 B50,2013-02-22 01:53:00,
2013-02-21 18:58:00,40.2,20.0,29.89,West,269,6.0,9.0,44,0.00,,,0.00,LWC V2.11 B50,2013-02-22 01:58:00,
2013-02-21 19:03:00,39.9,19.8,29.89,NW,309,3.0,7.0,44,0.00,,,0.00,LWC V2.11 B50,2013-02-22 02:03:00,
2013-02-21 19:08:00,39.6,20.0,29.90,WNW,293,2.0,9.0,45,0.00,,,0.00,LWC V2.11 B50,2013-02-22 02:08:00,
2013-02-21 19:13:00,39.3,19.8,29.90,West,277,2.0,7.0,45,0.00,,,0.00,LWC V2.11 B50,2013-02-22 02:13:00,
2013-02-21 19:18:00,39.1,19.6,29.90,West,279,6.0,9.0,45,0.00,,,0.00,LWC V2.11 B50,2013-02-22 02:18:00,
2013-02-21 19:23:00,38.9,19.9,29.90,West,274,4.0,7.0,46,0.00,,,0.00,LWC V2.11 B50,2013-02-22 02:23:00,
2013-02-21 19:28:00,38.6,19.6,29.90,West,279,5.0,8.0,46,0.00,,,0.00,LWC V2.11 B50,2013-02-22 02:28:00,
2013-02-21 19:33:00,38.4,19.4,29.91,West,259,4.0,8.0,46,0.00,,,0.00,LWC V2.11 B50,2013-02-22 02:33:00,
2013-02-21 19:38:00,38.2,19.3,29.91,WNW,293,6.0,6.0,46,0.00,,,0.00,LWC V2.11 B50,2013-02-22 02:38:00,
2013-02-21 19:43:00,38.1,19.7,29.91,West,276,5.0,9.0,47,0.00,,,0.00,LWC V2.11 B50,2013-02-22 02:43:00,
2013-02-21 19:48:00,38.0,19.6,29.91,WNW,291,1.0,6.0,47,0.00,,,0.00,LWC V2.11 B50,2013-02-22 02:48:00,
2013-02-21 19:53:00,37.9,19.5,29.91,West,273,3.0,6.0,47,0.00,,,0.00,LWC V2.11 B50,2013-02-22 02:53:00,
2013-02-21 19:58:00,37.8,19.9,29.92,West,275,1.0,6.0,48,0.00,,,0.00,LWC V2.11 B50,2013-02-22 02:58:00,
2013-02-21 20:03:00,37.7,19.8,29.92,West,273,5.0,5.0,48,0.00,,,0.00,LWC V2.11 B50,2013-02-22 03:03:00,
2013-02-21 20:08:00,37.7,19.8,29.92,WNW,289,2.0,5.0,48,0.00,,,0.00,LWC V2.11 B50,2013-02-22 03:08:00,
2013-02-21 20:13:00,37.6,19.7,29.92,WNW,294,1.0,7.0,48,0.00,,,0.00,LWC V2.11 B50,2013-02-22 03:13:00,
2013-02-21 20:18:00,37.5,19.6,29.92,West,275,4.0,7.0,48,0.00,,,0.00,LWC V2.11 B50,2013-02-22 03:18:00,
2013-02-21 20:23:00,37.4,19.5,29.92,West,276,2.0,5.0,48,0.00,,,0.00,LWC V2.11 B50,2013-02-22 03:23:00,
2013-02-21 20:28:00,37.3,19.9,29.92,WNW,292,1.0,7.0,49,0.00,,,0.00,LWC V2.11 B50,2013-02-22 03:28:00,
2013-02-21 20:33:00,37.2,19.8,29.92,WNW,290,1.0,5.0,49,0.00,,,0.00,LWC V2.11 B50,2013-02-22 03:33:00,
2013-02-21 20:38:00,36.9,19.5,29.93,West,265,3.0,4.0,49,0.00,,,0.00,LWC V2.11 B50,2013-02-22 03:38:00,
2013-02-21 20:43:00,36.7,19.8,29.93,West,275,7.0,7.0,50,0.00,,,0.00,LWC V2.11 B50,2013-02-22 03:43:00,
2013-02-21 20:49:00,36.5,19.6,29.93,WNW,285,5.0,7.0,50,0.00,,,0.00,LWC V2.11 B50,2013-02-22 03:49:00,
2013-02-21 20:54:00,36.4,19.6,29.93,WNW,297,3.0,7.0,50,0.00,,,0.00,LWC V2.11 B50,2013-02-22 03:54:00,
2013-02-21 20:59:00,36.3,19.5,29.93,West,273,3.0,7.0,50,0.00,,,0.00,LWC V2.11 B50,2013-02-22 03:59:00,
2013-02-21 21:04:00,36.1,19.3,29.93,NW,307,3.0,5.0,50,0.00,,,0.00,LWC V2.11 B50,2013-02-22 04:04:00,
2013-02-21 21:09:00,35.9,19.6,29.94,WNW,286,4.0,7.0,51,0.00,,,0.00,LWC V2.11 B50,2013-02-22 04:09:00,
2013-02-21 21:14:00,35.9,19.6,29.94,WNW,286,2.0,7.0,51,0.00,,,0.00,LWC V2.11 B50,2013-02-22 04:14:00,
2013-02-21 21:19:00,35.9,19.6,29.94,WNW,290,3.0,7.0,51,0.00,,,0.00,LWC V2.11 B50,2013-02-22 04:19:00,
2013-02-21 21:24:00,36.0,19.6,29.94,West,278,5.0,7.0,51,0.00,,,0.00,LWC V2.11 B50,2013-02-22 04:24:00,
2013-02-21 21:29:00,35.9,19.6,29.94,West,279,3.0,8.0,51,0.00,,,0.00,LWC V2.11 B50,2013-02-22 04:29:00,
2013-02-21 21:34:00,35.9,19.6,29.94,West,269,2.0,4.0,51,0.00,,,0.00,LWC V2.11 B50,2013-02-22 04:34:00,
2013-02-21 21:39:00,35.8,19.5,29.94,WNW,284,3.0,7.0,51,0.00,,,0.00,LWC V2.11 B50,2013-02-22 04:39:00,
2013-02-21 21:44:00,35.9,19.6,29.94,West,275,3.0,8.0,51,0.00,,,0.00,LWC V2.11 B50,2013-02-22 04:44:00,
2013-02-21 21:49:00,35.9,19.6,29.94,WNW,283,4.0,7.0,51,0.00,,,0.00,LWC V2.11 B50,2013-02-22 04:49:00,
2013-02-21 21:54:00,35.9,19.6,29.95,WNW,284,4.0,5.0,51,0.00,,,0.00,LWC V2.11 B50,2013-02-22 04:54:00,
2013-02-21 21:59:00,35.7,19.4,29.94,WNW,302,2.0,5.0,51,0.00,,,0.00,LWC V2.11 B50,2013-02-22 04:59:00,
2013-02-21 22:00:00,35.7,19.4,29.94,NW,311,1.0,3.0,51,0.00,,,0.00,LWC V2.11 B50,2013-02-22 05:00:00,
2013-02-21 22:05:00,35.6,19.7,29.95,WNW,302,0.0,1.0,52,0.00,,,0.00,LWC V2.11 B50,2013-02-22 05:05:00,
2013-02-21 22:10:00,35.4,19.5,29.95,WNW,288,3.0,3.0,52,0.00,,,0.00,LWC V2.11 B50,2013-02-22 05:10:00,
2013-02-21 22:15:00,35.3,19.5,29.94,WNW,284,0.0,3.0,52,0.00,,,0.00,LWC V2.11 B50,2013-02-22 05:15:00,
2013-02-21 22:20:00,35.2,19.4,29.95,WNW,290,0.0,0.0,52,0.00,,,0.00,LWC V2.11 B50,2013-02-22 05:20:00,
2013-02-21 22:25:00,35.0,19.6,29.95,NNE,19,0.0,3.0,53,0.00,,,0.00,LWC V2.11 B50,2013-02-22 05:25:00,
2013-02-21 22:30:00,34.9,19.5,29.95,North,10,0.0,2.0,53,0.00,,,0.00,LWC V2.11 B50,2013-02-22 05:30:00,
2013-02-21 22:35:00,34.9,19.5,29.95,NE,36,0.0,2.0,53,0.00,,,0.00,LWC V2.11 B50,2013-02-22 05:35:00,
2013-02-21 22:40:00,34.9,19.5,29.95,NW,306,0.0,4.0,53,0.00,,,0.00,LWC V2.11 B50,2013-02-22 05:40:00,
2013-02-21 22:45:00,35.2,19.8,29.95,NW,304,1.0,6.0,53,0.00,,,0.00,LWC V2.11 B50,2013-02-22 05:45:00,
2013-02-21 22:50:00,35.4,19.5,29.96,NW,312,0.0,0.0,52,0.00,,,0.00,LWC V2.11 B50,2013-02-22 05:50:00,
2013-02-21 22:55:00,35.4,19.5,29.96,NNW,341,0.0,1.0,52,0.00,,,0.00,LWC V2.11 B50,2013-02-22 05:55:00,
2013-02-21 23:00:00,35.3,19.5,29.96,NNW,338,0.0,0.0,52,0.00,,,0.00,LWC V2.11 B50,2013-02-22 06:00:00,
2013-02-21 23:05:00,35.3,19.5,29.96,NNW,338,0.0,0.0,52,0.00,,,0.00,LWC V2.11 B50,2013-02-22 06:05:00,
2013-02-21 23:10:00,35.1,19.3,29.96,NNW,338,0.0,0.0,52,0.00,,,0.00,LWC V2.11 B50,2013-02-22 06:10:00,
2013-02-21 23:15:00,34.8,19.0,29.96,NNW,338,0.0,0.0,52,0.00,,,0.00,LWC V2.11 B50,2013-02-22 06:15:00,
2013-02-21 23:20:00,34.7,19.3,29.96,NNW,338,0.0,0.0,53,0.00,,,0.00,LWC V2.11 B50,2013-02-22 06:20:00,
2013-02-21 23:25:00,34.6,19.2,29.96,NNW,338,0.0,0.0,53,0.00,,,0.00,LWC V2.11 B50,2013-02-22 06:25:00,
2013-02-21 23:30:00,34.4,19.1,29.97,NNW,338,0.0,0.0,53,0.00,,,0.00,LWC V2.11 B50,2013-02-22 06:30:00,
2013-02-21 23:35:00,34.2,18.9,29.97,NNW,338,0.0,0.0,53,0.00,,,0.00,LWC V2.11 B50,2013-02-22 06:35:00,
2013-02-21 23:40:00,34.1,18.8,29.97,NNW,338,0.0,0.0,53,0.00,,,0.00,LWC V2.11 B50,2013-02-22 06:40:00,
2013-02-21 23:45:00,34.0,18.7,29.97,NNW,338,0.0,1.0,53,0.00,,,0.00,LWC V2.11 B50,2013-02-22 06:45:00,
2013-02-21 23:50:00,34.0,18.7,29.97,WNW,299,0.0,0.0,53,0.00,,,0.00,LWC V2.11 B50,2013-02-22 06:50:00,
2013-02-21 23:55:00,34.0,18.7,29.97,WNW,290,0.0,1.0,53,0.00,,,0.00,LWC V2.11 B50,2013-02-22 06:55:00,